Location: Ostrava
(49.8330°N, 18.2830°E)
Time: 21:29:27
(UTC+01:00)

Transit 2A - All Passes

Search period start: 26 January 2015 00:00
Search period end: 05 February 2015 00:00
Orbit: 593 x 969 km, 66.7° (Epoch: 25 January)

Date Brightness Start Highest point End Pass type
(mag) Time Alt. Az. Time Alt. Az. Time Alt. Az.
26 Jan - 02:40:47 10° ESE 02:42:31 12° E 02:44:37 10° E visible
26 Jan - 04:19:23 10° SSW 04:24:39 67° ESE 04:30:34 10° NE visible
26 Jan - 06:03:24 10° W 06:08:28 34° NW 06:13:56 10° NNE visible
26 Jan - 07:49:49 10° NW 07:53:40 17° N 07:57:38 10° NNE daylight
26 Jan - 09:35:07 10° NNW 09:39:20 19° NNE 09:43:43 10° ENE daylight
26 Jan - 11:18:30 10° NNW 11:24:22 40° NE 11:30:23 10° ESE daylight
26 Jan - 13:01:48 10° NW 13:08:04 61° WSW 13:14:18 10° SSE daylight
26 Jan - 14:47:35 10° WNW 14:50:22 13° WSW 14:52:48 10° SW daylight
27 Jan - 03:45:58 10° S 03:51:03 49° ESE 03:56:45 10° NE visible
27 Jan - 05:29:17 10° WSW 05:34:31 41° NW 05:40:15 10° NNE visible
27 Jan - 07:15:28 10° WNW 07:19:32 19° NNW 07:23:44 10° NNE daylight
27 Jan - 09:01:15 10° NNW 09:05:12 17° N 09:09:19 10° NE daylight
27 Jan - 10:44:49 10° NNW 10:50:26 33° NE 10:56:12 10° E daylight
27 Jan - 12:28:02 10° NW 12:34:24 79° WSW 12:40:46 10° SSE daylight
27 Jan - 14:12:45 10° WNW 14:16:56 18° WSW 14:20:51 10° SW daylight
28 Jan - 03:12:42 10° S 03:17:30 36° ESE 03:22:50 10° NE visible
28 Jan - 04:55:17 10° WSW 05:00:38 52° NW 05:06:33 10° NNE visible
28 Jan - 06:41:06 10° WNW 06:45:25 21° NNW 06:49:55 10° NNE visible
28 Jan - 08:27:15 10° NNW 08:31:02 17° N 08:34:58 10° NE daylight
28 Jan - 10:11:08 10° NNW 10:16:26 28° NNE 10:21:54 10° E daylight
28 Jan - 11:54:17 10° NW 12:00:41 82° NE 12:07:05 10° SE daylight
28 Jan - 13:38:27 10° WNW 13:43:28 24° WSW 13:48:18 10° SSW daylight
29 Jan - 02:39:39 10° SSE 02:44:00 26° ESE 02:48:49 10° NE visible
29 Jan - 04:21:24 10° SW 04:26:49 66° NW 04:32:51 10° NNE visible
29 Jan - 06:06:45 10° WNW 06:11:20 23° NNW 06:16:09 10° NNE visible
29 Jan - 07:53:10 10° NW 07:56:52 16° N 08:00:42 10° NE daylight
29 Jan - 09:37:25 10° NNW 09:42:24 24° NNE 09:47:33 10° E daylight
29 Jan - 11:20:35 10° NNW 11:26:54 66° NE 11:33:16 10° SE daylight
29 Jan - 13:04:22 10° NW 13:09:58 32° WSW 13:15:24 10° S daylight
30 Jan - 02:06:54 10° SSE 02:10:32 19° ESE 02:14:37 10° ENE visible
30 Jan - 03:47:38 10° SW 03:53:04 85° NW 03:59:08 10° NE visible
30 Jan - 05:32:27 10° W 05:37:17 27° NNW 05:42:25 10° NNE visible
30 Jan - 07:18:58 10° NW 07:22:42 16° N 07:26:33 10° NE daylight
30 Jan - 09:03:40 10° NNW 09:08:19 22° NNE 09:13:09 10° ENE daylight
30 Jan - 10:46:54 10° NNW 10:53:05 52° NE 10:59:20 10° ESE daylight
30 Jan - 12:30:26 10° NW 12:36:24 42° WSW 12:42:17 10° S daylight
31 Jan - 01:34:38 10° SE 01:37:08 14° ESE 01:40:00 10° ENE visible
31 Jan - 03:13:59 10° SSW 03:19:22 74° ESE 03:25:23 10° NE visible
31 Jan - 04:58:13 10° W 05:03:17 32° NNW 05:08:43 10° NNE visible
31 Jan - 06:44:41 10° NW 06:48:33 17° N 06:52:31 10° NNE visible
31 Jan - 08:29:52 10° NNW 08:34:13 19° NNE 08:38:44 10° ENE daylight
31 Jan - 10:13:13 10° NNW 10:19:12 43° NE 10:25:16 10° ESE daylight
31 Jan - 11:56:34 10° NW 12:02:48 56° WSW 12:08:57 10° SSE daylight
31 Jan - 13:43:03 10° W 13:45:01 11° W 13:46:34 10° WSW daylight
01 Feb - 02:40:30 10° SSW 02:45:44 55° ESE 02:51:34 10° NE visible
01 Feb - 04:24:05 10° WSW 04:29:19 39° NW 04:35:01 10° NNE visible
01 Feb - 06:10:21 10° WNW 06:14:24 18° NNW 06:18:35 10° NNE visible
01 Feb - 07:56:00 10° NNW 08:00:05 18° NNE 08:04:18 10° NE daylight
01 Feb - 09:39:32 10° NNW 09:45:16 35° NE 09:51:07 10° ESE daylight
01 Feb - 11:22:47 10° NW 11:29:09 73° WSW 11:35:28 10° SSE daylight
01 Feb - 13:07:48 10° WNW 13:11:36 16° WSW 13:15:06 10° SW daylight
02 Feb - 02:07:10 10° S 02:12:09 40° ESE 02:17:42 10° NE visible
02 Feb - 03:50:02 10° WSW 03:55:25 48° NW 04:01:20 10° NNE visible
02 Feb - 05:35:58 10° WNW 05:40:17 20° NNW 05:44:44 10° NNE visible
02 Feb - 07:22:02 10° NNW 07:25:56 17° N 07:29:57 10° NE daylight
02 Feb - 09:05:51 10° NNW 09:11:17 30° NNE 09:16:52 10° E daylight
02 Feb - 10:49:02 10° NW 10:55:27 89° NE 11:01:50 10° SE daylight
02 Feb - 12:33:22 10° WNW 12:38:09 22° WSW 12:42:42 10° SSW daylight
03 Feb - 01:34:03 10° S 01:38:38 30° ESE 01:43:44 10° NE visible
03 Feb - 03:16:06 10° SW 03:21:34 61° NW 03:27:38 10° NNE visible
03 Feb - 05:01:37 10° WNW 05:06:11 23° NNW 05:10:57 10° NNE visible
03 Feb - 06:47:59 10° NW 06:51:46 16° N 06:55:39 10° NE daylight
03 Feb - 08:32:08 10° NNW 08:37:16 26° NNE 08:42:32 10° E daylight
03 Feb - 10:15:19 10° NW 10:21:42 71° NE 10:28:03 10° SE daylight
03 Feb - 11:59:13 10° NW 12:04:39 29° WSW 12:09:54 10° SSW daylight
04 Feb - 01:01:11 10° SSE 01:05:10 22° ESE 01:09:36 10° ENE visible
04 Feb - 02:42:17 10° SW 02:47:47 79° NW 02:53:55 10° NE visible
04 Feb - 04:27:18 10° W 04:32:07 26° NNW 04:37:12 10° NNE visible
04 Feb - 06:13:49 10° NW 06:17:35 16° N 06:21:28 10° NE visible
04 Feb - 07:58:24 10° NNW 08:03:12 22° NNE 08:08:09 10° ENE daylight
04 Feb - 09:41:37 10° NNW 09:47:53 56° NE 09:54:09 10° SE daylight
04 Feb - 11:25:14 10° NW 11:31:07 39° WSW 11:36:50 10° S daylight
